Weather Roundup
Issued by NWS Corpus Christi, TX

Home | Current Version | Previous Version | Text Only | Print | Product List | Glossary On
Versions: 1 2 3 4 5 6 7 8 9 10 11 12 13 14 15 16 17 18 19 20 21 22 23 24 25 26 27 28 29 30 31 32 33 34 35 36 37 38 39 40 41 42 43 44 45 46 47 48 49 50
000
ASUS44 KCRP 041410
HRRCRP

SOUTH TEXAS REGIONAL WEATHER ROUNDUP
NATIONAL WEATHER SERVICE CORPUS CHRISTI TX
900 AM CDT MON MAY 04 2015


TXZ229>244-041500-
...CORPUS CHRISTI AREA OBSERVATIONS...

CITY           SKY/WX    TMP DP  RH WIND       PRES   REMARKS
CORPUS CHRISTI MOSUNNY   76  67  73 SE16G24   30.01R
NAS CORPUS CHR MOSUNNY   75  69  81 SE14G22   30.01R
ROCKPORT       PTSUNNY   77  67  71 SE17      30.01S
KINGSVILLE NAS MOSUNNY   78  71  79 SE17      30.00R
ALICE          PTSUNNY   78  69  73 SE15G23   29.99S
FALFURRIAS     PTSUNNY   75  69  81 SE9G16    29.99R
$$

...VICTORIA AREA OBSERVATIONS...

CITY           SKY/WX    TMP DP  RH WIND       PRES   REMARKS
VICTORIA       MOSUNNY   74  70  87 SE10      30.04R
BEEVILLE       FAIR      74  70  89 SE13G18   30.02R
PLEASANTON     RAIN      71  67  88 E10       30.02R
SAN ANTONIO    NOT AVBL
$$

...LAREDO AREA OBSERVATIONS...

CITY           SKY/WX    TMP DP  RH WIND       PRES   REMARKS
LAREDO         CLOUDY    75  70  83 SE15      29.98R
COTULLA        CLOUDY    75  66  73 SE17      29.98R
DEL RIO        CLOUDY    71  67  87 E10       29.96R
MCALLEN        MOSUNNY   80  69  69 SE20G25   29.96R
HEBBRONVILLE     N/A     71  69  93 E13       30.00S
$$

...OTHER TEXAS OBSERVATIONS...

CITY           SKY/WX    TMP DP  RH WIND       PRES   REMARKS
BROWNSVILLE    MOSUNNY   78  69  73 SE15      29.98R
HOUSTON        MOSUNNY   73  66  78 E7        30.10R
COL. STATION   MOSUNNY   72  64  76 SE10      30.08S
AUSTIN         PTSUNNY   68  66  93 SE8       30.07R
WACO           PTSUNNY   68  63  84 S10       30.09R
FORT WORTH     PTSUNNY   69  63  81 S18       30.08R
WICHITA FALLS  MOSUNNY   68  62  81 S14       30.04R
LUBBOCK        MOSUNNY   66  57  72 SE12      30.03R
EL PASO        MOSUNNY   67  47  48 N12       29.95R
$$

...MARINE OBSERVATIONS...

STATION/POSITION TIME  SKY/WX   TEMP    WIND        PRES    VSBY  WAVE   SWELL
                                AIR SEA DIR/SP/G                  HT/PER HT/PER
                 (UTC)          (F)     (DEG/KT/KT) (MB)    (MI)  (FT/S) (FT/S)
PORT ARANSAS     1400            75 76  120/ 17/ 18 1016.9R
BUOY 90 E PORT A 1350            76 75  120/ 14/ 16 1017.5R         4/ 6
BUOY 45 SE BAFFI 1350            75 74  120/ 14/ 17 1015.8R         4/ 6
BUOY 200 E PT IS 1350            77 77  100/ 12/ 14 1017.1R         3/ 5
BUOY 15 E GALVES 1350            75 74  130/ 10/ 12 1018.8R         3/ 5   2/ 5
$$


USA.gov is the U.S. government's official web portal to all federal, state and local government web resources and services.